�������l�o���
Date,Time,MP-1(��Sv/h),MP-2(��Sv/h),MP-3(��Sv/h),MP-4(��Sv/h),MP-5(��Sv/h),MP-6(��Sv/h),MP-7(��Sv/h),MP-8(��Sv/h),����,����(m/s),���J
2018/06/26,00:00,0.899,1.267,0.878,1.585,1.112,0.481,0.835,0.794,��쐼,2.0,��
2018/06/26,00:10,0.898,1.268,0.879,1.584,1.113,0.480,0.836,0.793,�쐼,1.5,��
2018/06/26,00:20,0.899,1.269,0.879,1.585,1.110,0.481,0.835,0.794,�쐼,1.9,��
2018/06/26,00:30,0.898,1.268,0.877,1.587,1.111,0.482,0.835,0.792,�쐼,1.5,��
2018/06/26,00:40,0.899,1.266,0.877,1.589,1.110,0.481,0.834,0.794,�쐼,1.5,��
2018/06/26,00:50,0.896,1.268,0.879,1.585,1.110,0.481,0.836,0.793,��,0.8,��
2018/06/26,01:00,0.898,1.269,0.879,1.587,1.109,0.480,0.835,0.795,�쐼,0.6,��
2018/06/26,01:10,0.899,1.267,0.878,1.588,1.109,0.481,0.834,0.794,��,0.6,��
2018/06/26,01:20,0.896,1.269,0.879,1.587,1.109,0.482,0.835,0.794,�k��,0.6,��
2018/06/26,01:30,0.897,1.267,0.878,1.586,1.111,0.481,0.834,0.795,�k�k��,0.9,��
2018/06/26,01:40,0.896,1.267,0.878,1.588,1.112,0.480,0.835,0.794,�k��,1.9,��
2018/06/26,01:50,0.898,1.268,0.880,1.586,1.112,0.479,0.834,0.794,�k�k��,1.5,��
2018/06/26,02:00,0.897,1.268,0.878,1.586,1.109,0.481,0.835,0.794,�k,1.9,��
2018/06/26,02:10,0.896,1.266,0.881,1.586,1.112,0.482,0.836,0.793,�k,3.0,��
2018/06/26,02:20,0.900,1.266,0.879,1.587,1.112,0.480,0.834,0.793,�k,2.9,��
2018/06/26,02:30,0.898,1.270,0.879,1.586,1.111,0.482,0.836,0.793,�k�k��,2.5,��
2018/06/26,02:40,0.899,1.269,0.880,1.589,1.111,0.482,0.835,0.794,�k�k��,2.2,��
2018/06/26,02:50,0.898,1.269,0.879,1.586,1.113,0.480,0.836,0.794,�k,2.0,��
2018/06/26,03:00,0.899,1.270,0.881,1.588,1.112,0.482,0.835,0.796,�k�k��,2.6,��
2018/06/26,03:10,0.897,1.268,0.880,1.589,1.112,0.481,0.835,0.795,�k�k��,3.4,��
2018/06/26,03:20,0.896,1.268,0.879,1.589,1.110,0.482,0.834,0.795,�k�k��,3.3,��
2018/06/26,03:30,0.897,1.267,0.880,1.585,1.111,0.480,0.833,0.794,�k�k��,3.5,��
2018/06/26,03:40,0.896,1.266,0.880,1.589,1.110,0.481,0.834,0.795,�k�k��,3.3,��
2018/06/26,03:50,0.897,1.268,0.880,1.585,1.110,0.479,0.835,0.794,�k,2.6,��
2018/06/26,04:00,0.893,1.265,0.878,1.586,1.112,0.480,0.834,0.793,�k,2.3,��
2018/06/26,04:10,0.899,1.267,0.877,1.587,1.112,0.481,0.835,0.794,�k�k��,2.5,��
2018/06/26,04:20,0.897,1.268,0.878,1.584,1.109,0.479,0.837,0.795,�k,3.1,��
2018/06/26,04:30,0.897,1.266,0.878,1.584,1.112,0.480,0.835,0.795,�k,2.9,��
2018/06/26,04:40,0.897,1.266,0.879,1.588,1.111,0.480,0.835,0.794,�k,2.2,��
2018/06/26,04:50,0.896,1.265,0.880,1.585,1.112,0.478,0.835,0.793,�k,3.2,��
2018/06/26,05:00,0.896,1.267,0.879,1.584,1.109,0.480,0.835,0.793,�k,3.5,��
2018/06/26,05:10,0.897,1.266,0.878,1.584,1.108,0.480,0.834,0.794,�k�k��,3.2,��
2018/06/26,05:20,0.895,1.266,0.877,1.586,1.110,0.479,0.836,0.793,�k�k��,3.4,��
2018/06/26,05:30,0.896,1.267,0.877,1.585,1.111,0.479,0.834,0.795,�k�k��,3.4,��
2018/06/26,05:40,0.897,1.266,0.877,1.589,1.110,0.480,0.835,0.795,�k�k��,3.3,��
2018/06/26,05:50,0.897,1.267,0.880,1.586,1.109,0.480,0.834,0.794,�k�k��,3.0,��
2018/06/26,06:00,0.897,1.270,0.880,1.586,1.111,0.480,0.834,0.795,�k,2.9,��
2018/06/26,06:10,0.898,1.266,0.879,1.586,1.108,0.480,0.835,0.794,�k,2.3,��
2018/06/26,06:20,0.899,1.267,0.879,1.586,1.109,0.479,0.836,0.792,�k,1.7,��
2018/06/26,06:30,0.896,1.267,0.878,1.584,1.109,0.480,0.836,0.795,�k�k��,1.4,��
2018/06/26,06:40,0.897,1.266,0.878,1.588,1.108,0.478,0.834,0.795,�k��,1.9,��
2018/06/26,06:50,0.896,1.263,0.878,1.584,1.110,0.481,0.835,0.794,�k�k��,1.9,��
2018/06/26,07:00,0.895,1.265,0.877,1.584,1.108,0.479,0.837,0.795,�k�k��,1.7,��
2018/06/26,07:10,0.896,1.263,0.875,1.584,1.107,0.479,0.835,0.794,�k,2.9,��
2018/06/26,07:20,0.892,1.263,0.877,1.585,1.108,0.477,0.834,0.797,�k,2.6,��
2018/06/26,07:30,0.894,1.262,0.877,1.587,1.108,0.475,0.834,0.793,�k�k��,2.0,��
2018/06/26,07:40,0.893,1.261,0.875,1.585,1.108,0.475,0.833,0.793,�k,3.5,��
2018/06/26,07:50,0.893,1.263,0.877,1.587,1.109,0.476,0.835,0.794,�k�k��,4.3,��
2018/06/26,08:00,0.894,1.262,0.875,1.586,1.108,0.476,0.832,0.790,�k�k��,3.9,��
2018/06/26,08:10,0.896,1.262,0.877,1.585,1.107,0.476,0.833,0.790,�k�k��,2.9,��
2018/06/26,08:20,0.893,1.263,0.879,1.585,1.109,0.477,0.833,0.791,�k�k��,3.0,��
2018/06/26,08:30,0.891,1.264,0.875,1.587,1.109,0.477,0.832,0.790,�k�k��,3.2,��
2018/06/26,08:40,0.892,1.263,0.877,1.587,1.109,0.478,0.833,0.792,�k�k��,3.0,��
2018/06/26,08:50,0.893,1.263,0.876,1.586,1.110,0.476,0.831,0.791,�k�k��,3.4,��
2018/06/26,09:00,0.891,1.264,0.876,1.584,1.111,0.477,0.833,0.793,�k�k��,2.6,��
2018/06/26,09:10,0.892,1.264,0.878,1.588,1.111,0.477,0.833,0.792,�k��,1.7,��
2018/06/26,09:20,0.894,1.266,0.876,1.586,1.111,0.476,0.835,0.791,���k��,2.5,��
2018/06/26,09:30,0.892,1.266,0.875,1.587,1.110,0.478,0.834,0.791,��,1.7,��
2018/06/26,09:40,0.894,1.267,0.876,1.588,1.111,0.477,0.833,0.794,���k��,2.3,��
2018/06/26,09:50,0.892,1.266,0.875,1.588,1.112,0.478,0.835,0.792,���k��,2.3,��
2018/06/26,10:00,0.893,1.267,0.875,1.585,1.112,0.478,0.834,0.793,���k��,2.0,��
2018/06/26,10:10,0.893,1.268,0.876,1.586,1.110,0.479,0.835,0.792,�k��,2.3,��
2018/06/26,10:20,0.894,1.270,0.877,1.588,1.113,0.479,0.835,0.791,�k��,2.8,��
2018/06/26,10:30,0.895,1.267,0.877,1.587,1.111,0.480,0.833,0.792,���k��,2.8,��
2018/06/26,10:40,0.895,1.268,0.879,1.588,1.113,0.478,0.835,0.793,���k��,2.5,��
2018/06/26,10:50,0.896,1.270,0.878,1.585,1.114,0.480,0.834,0.790,���k��,2.2,��
2018/06/26,11:00,0.894,1.269,0.876,1.589,1.114,0.479,0.834,0.792,���쓌,2.3,��
2018/06/26,11:10,0.895,1.268,0.879,1.587,1.114,0.480,0.835,0.792,��,1.9,��
2018/06/26,11:20,0.895,1.268,0.878,1.585,1.114,0.480,0.835,0.793,��,2.0,��
2018/06/26,11:30,0.897,1.270,0.880,1.584,1.115,0.481,0.835,0.793,��,2.2,��
2018/06/26,11:40,0.895,1.271,0.878,1.585,1.115,0.481,0.835,0.793,��,2.2,��
2018/06/26,11:50,0.896,1.266,0.879,1.587,1.115,0.478,0.836,0.793,���쓌,1.7,��
2018/06/26,12:00,0.892,1.267,0.881,1.585,1.113,0.480,0.836,0.792,���쓌,3.0,��
2018/06/26,12:10,0.896,1.270,0.880,1.586,1.115,0.479,0.837,0.792,���쓌,2.8,��
2018/06/26,12:20,0.895,1.270,0.879,1.587,1.117,0.479,0.834,0.792,���쓌,2.3,��
2018/06/26,12:30,0.898,1.271,0.880,1.587,1.115,0.480,0.835,0.792,��,2.0,��
2018/06/26,12:40,0.894,1.271,0.881,1.587,1.115,0.480,0.835,0.794,��,3.0,��
2018/06/26,12:50,0.895,1.271,0.882,1.589,1.115,0.482,0.836,0.792,���쓌,3.1,��
2018/06/26,13:00,0.896,1.271,0.880,1.589,1.116,0.480,0.835,0.793,���쓌,2.6,��
2018/06/26,13:10,0.894,1.272,0.880,1.585,1.115,0.481,0.834,0.795,���쓌,2.9,��
2018/06/26,13:20,0.895,1.272,0.883,1.587,1.115,0.479,0.836,0.794,���쓌,3.2,��
2018/06/26,13:30,0.893,1.269,0.881,1.587,1.115,0.480,0.835,0.792,��,2.0,��
2018/06/26,13:40,0.896,1.270,0.882,1.589,1.117,0.479,0.834,0.794,�쓌,2.3,��
2018/06/26,13:50,0.900,1.269,0.881,1.587,1.115,0.480,0.836,0.791,�쓌,2.6,��
2018/06/26,14:00,0.899,1.272,0.881,1.590,1.117,0.481,0.835,0.792,�쓌,2.0,��
2018/06/26,14:10,0.895,1.273,0.879,1.589,1.117,0.479,0.835,0.792,�쓌,2.5,��
2018/06/26,14:20,0.897,1.271,0.881,1.587,1.113,0.481,0.834,0.792,�쓌,2.5,��
2018/06/26,14:30,0.898,1.271,0.880,1.590,1.115,0.481,0.833,0.794,�쓌,2.6,��
2018/06/26,14:40,0.896,1.271,0.881,1.589,1.117,0.479,0.834,0.795,�쓌,2.9,��
2018/06/26,14:50,0.895,1.271,0.879,1.588,1.117,0.479,0.836,0.794,�쓌,2.0,��
2018/06/26,15:00,0.898,1.272,0.880,1.589,1.116,0.478,0.834,0.794,�쓌,1.7,��
2018/06/26,15:10,0.897,1.272,0.881,1.590,1.119,0.479,0.835,0.792,��쓌,2.0,��
2018/06/26,15:20,0.897,1.272,0.882,1.590,1.119,0.480,0.834,0.794,��쓌,2.3,��
2018/06/26,15:30,0.897,1.272,0.882,1.589,1.116,0.479,0.836,0.793,��쓌,2.6,��
2018/06/26,15:40,0.896,1.272,0.882,1.591,1.118,0.480,0.835,0.793,��쓌,2.9,��
2018/06/26,15:50,0.898,1.272,0.882,1.588,1.115,0.480,0.835,0.794,��,3.3,��
2018/06/26,16:00,0.896,1.270,0.883,1.592,1.117,0.479,0.833,0.792,��쓌,3.6,��
2018/06/26,16:10,0.897,1.272,0.882,1.588,1.115,0.480,0.833,0.793,��,4.2,��
2018/06/26,16:20,0.894,1.273,0.883,1.592,1.116,0.479,0.834,0.793,��쓌,3.6,��
2018/06/26,16:30,0.896,1.271,0.883,1.590,1.114,0.480,0.835,0.795,��쓌,3.2,��
2018/06/26,16:40,0.897,1.273,0.883,1.590,1.114,0.481,0.836,0.794,��쓌,3.1,��
2018/06/26,16:50,0.899,1.272,0.881,1.592,1.114,0.479,0.836,0.795,��쐼,2.6,��
2018/06/26,17:00,0.898,1.271,0.882,1.590,1.117,0.481,0.834,0.796,��쓌,1.4,��
2018/06/26,17:10,0.898,1.271,0.883,1.590,1.116,0.479,0.835,0.794,��쓌,1.7,��
2018/06/26,17:20,0.898,1.273,0.885,1.591,1.115,0.479,0.835,0.795,�쓌,3.0,��
2018/06/26,17:30,0.897,1.270,0.885,1.590,1.117,0.479,0.835,0.793,��쓌,3.0,��
2018/06/26,17:40,0.896,1.272,0.882,1.590,1.115,0.479,0.837,0.794,��쓌,3.1,��
2018/06/26,17:50,0.896,1.270,0.883,1.590,1.115,0.479,0.837,0.794,��쓌,2.6,��
2018/06/26,18:00,0.899,1.271,0.884,1.587,1.115,0.479,0.835,0.794,��쐼,1.9,��
2018/06/26,18:10,0.897,1.274,0.884,1.591,1.117,0.478,0.835,0.794,��쐼,0.9,��
2018/06/26,18:20,0.896,1.271,0.885,1.592,1.115,0.478,0.835,0.794,��쓌,0.9,��
2018/06/26,18:30,0.898,1.272,0.884,1.591,1.117,0.480,0.836,0.793,��쓌,2.0,��
2018/06/26,18:40,0.898,1.272,0.884,1.590,1.118,0.480,0.835,0.795,��쓌,1.7,��
2018/06/26,18:50,0.897,1.273,0.885,1.591,1.116,0.480,0.834,0.794,-,CALM,��
2018/06/26,19:00,0.898,1.274,0.887,1.592,1.115,0.481,0.835,0.795,-,CALM,��
2018/06/26,19:10,0.896,1.269,0.883,1.589,1.116,0.479,0.835,0.794,�쐼,0.8,��
2018/06/26,19:20,0.897,1.273,0.884,1.592,1.115,0.483,0.835,0.795,��쐼,0.8,��
2018/06/26,19:30,0.898,1.272,0.885,1.589,1.117,0.481,0.834,0.795,-,CALM,��
2018/06/26,19:40,0.899,1.272,0.887,1.592,1.117,0.481,0.835,0.795,�쐼,0.6,��
2018/06/26,19:50,0.899,1.275,0.885,1.591,1.117,0.482,0.835,0.796,-,CALM,��
2018/06/26,20:00,0.898,1.272,0.883,1.589,1.117,0.481,0.836,0.795,���쓌,0.6,��
2018/06/26,20:10,0.900,1.274,0.884,1.591,1.118,0.482,0.836,0.796,�쓌,0.9,��
2018/06/26,20:20,0.896,1.273,0.885,1.592,1.120,0.480,0.839,0.796,���쓌,0.9,��
2018/06/26,20:30,0.897,1.273,0.884,1.590,1.119,0.482,0.835,0.796,���쓌,0.6,��
2018/06/26,20:40,0.899,1.275,0.886,1.590,1.118,0.482,0.835,0.796,�k�k��,0.8,��
2018/06/26,20:50,0.899,1.271,0.886,1.592,1.121,0.481,0.835,0.794,�k�k��,0.6,��
2018/06/26,21:00,0.897,1.275,0.886,1.591,1.119,0.481,0.836,0.795,�k,0.9,��
2018/06/26,21:10,0.896,1.275,0.887,1.588,1.120,0.482,0.835,0.795,�k�k��,2.0,��
2018/06/26,21:20,0.899,1.273,0.883,1.590,1.117,0.483,0.838,0.795,�k�k��,2.6,��
2018/06/26,21:30,0.900,1.274,0.883,1.592,1.118,0.482,0.837,0.797,�k,3.2,��
2018/06/26,21:40,0.900,1.274,0.884,1.593,1.117,0.483,0.837,0.795,�k�k��,3.4,��
2018/06/26,21:50,0.899,1.274,0.884,1.593,1.117,0.482,0.837,0.796,�k�k��,4.1,��
2018/06/26,22:00,0.898,1.274,0.886,1.588,1.119,0.481,0.837,0.794,�k�k��,5.1,��
2018/06/26,22:10,0.900,1.274,0.885,1.590,1.117,0.482,0.837,0.795,�k�k��,5.2,��
2018/06/26,22:20,0.899,1.273,0.886,1.592,1.120,0.482,0.835,0.794,�k�k��,4.5,��
2018/06/26,22:30,0.898,1.274,0.885,1.590,1.119,0.482,0.837,0.798,�k�k��,4.1,��
2018/06/26,22:40,0.898,1.275,0.886,1.591,1.117,0.482,0.836,0.794,�k�k��,3.3,��
2018/06/26,22:50,0.899,1.275,0.885,1.592,1.120,0.481,0.837,0.797,�k,2.8,��
2018/06/26,23:00,0.898,1.272,0.887,1.589,1.117,0.481,0.835,0.795,�k,2.6,��
2018/06/26,23:10,0.898,1.273,0.884,1.589,1.118,0.481,0.836,0.795,�k�k��,2.6,��
2018/06/26,23:20,0.899,1.275,0.887,1.590,1.117,0.482,0.835,0.795,�k�k��,1.9,��
2018/06/26,23:30,0.898,1.271,0.886,1.590,1.116,0.482,0.837,0.795,�k,1.7,��
2018/06/26,23:40,0.898,1.273,0.885,1.589,1.118,0.481,0.836,0.795,�k,1.7,��
2018/06/26,23:50,0.896,1.272,0.884,1.592,1.116,0.480,0.836,0.797,�k,0.8,��
